Content
SEND FEEDBACK

Daily
Averages
Monthly
Summary
United States of America

BOSTON, MASSACHUSETTS


Home > North America > United States > Massachusetts
Elevation: 4 feet     Latitude: 42 22N     Longitude: 071 02W

WEATHER
 
SELECT A DAY
Number of Records: 202,348;   Date Range: 1/1/95 - 7/7/14
 
SHARE

PRINT THIS DATA

[ ← Previous Day ]
WEATHER ALMANAC - JULY 5, 2013
[ Next Day → ]
[ °C ]   °F
Weather ElementAverageHighLow
Temperature86.3 °F93.9 °F (1:54 pm)79 °F (1:54 am)
Dewpoint71 °F73 °F (9:54 pm)68 °F (2:54 pm)
Humidity61.4 %77 % (1:54 am)43 % (2:54 pm)
Barometer30.09 in30.15 in (6:54 am)30.03 in (7:54 pm)
Wind Speed12.6 mph17.3 mph (4:54 pm)
Wind Gust24.2 mph (2:54 pm)
Weather ElementAverage
Visibility10 mi
Wind DirectionWSW (241.7 °)

Weather ElementTotal
Precipitation---
Cooling Degree Days21.5 (Base 65)
Growing Degree Days36.5 (Base 50)
Averaged from 23 records on July 5, 2013
WEATHER CONDITIONS BREAKOUT
WIND DIRECTION BREAKOUT
WEATHER BY HOUR - JULY 5, 2013
[ °C ]   °F
Local TimeTemperatureDewpointHumidityBarometerVisibilityWind DirectionWind SpeedGust SpeedPrecipitationEventsConditions
1:54 AM79.0 °F71.1 °F77 %30.12 in10.0 miWSW (240°)11.5 mphPartly Cloudy
2:54 AM79.0 °F71.1 °F77 %30.12 in10.0 miWSW (250°)12.7 mphClear
3:54 AM80.1 °F71.1 °F74 %30.12 in10.0 miWest (260°)13.8 mph23.0 mphClear
4:54 AM79.0 °F71.1 °F77 %30.13 in10.0 miWest (270°)12.7 mphClear
5:54 AM79.0 °F71.1 °F77 %30.14 in10.0 miWSW (250°)10.4 mphPartly Cloudy
6:54 AM81.0 °F71.1 °F72 %30.15 in10.0 miWSW (250°)9.2 mphClear
7:54 AM82.9 °F71.1 °F67 %30.15 in10.0 miWest (270°)9.2 mphClear
8:54 AM84.9 °F72.0 °F65 %30.15 in10.0 miWest (270°)10.4 mphClear
9:54 AM88.0 °F72.0 °F59 %30.14 in10.0 miWSW (250°)6.9 mphPartly Cloudy
10:54 AM90.0 °F72.0 °F55 %30.13 in10.0 miWest (260°)6.9 mphScattered Clouds
11:54 AM90.0 °F72.0 °F55 %30.12 in10.0 miSSW (200°)6.9 mphPartly Cloudy
12:54 PM93.0 °F69.1 °F45 %30.11 in10.0 miSW (230°)10.4 mph18.4 mphScattered Clouds
1:54 PM93.9 °F70.0 °F46 %30.09 in10.0 miSW (220°)13.8 mph21.9 mphScattered Clouds
2:54 PM93.9 °F68.0 °F43 %30.08 in10.0 miSW (230°)16.1 mph24.2 mphScattered Clouds
3:54 PM93.9 °F70.0 °F46 %30.05 in10.0 miSW (220°)16.1 mphScattered Clouds
4:54 PM93.0 °F70.0 °F47 %30.04 in10.0 miSW (220°)17.3 mphPartly Cloudy
5:54 PM91.9 °F69.1 °F47 %30.04 in10.0 miWSW (240°)17.3 mph24.2 mphPartly Cloudy
6:54 PM91.0 °F69.1 °F48 %30.04 in10.0 miWSW (240°)15.0 mphPartly Cloudy
7:54 PM88.0 °F72.0 °F59 %30.03 in10.0 miSW (230°)17.3 mphScattered Clouds
8:54 PM84.9 °F72.0 °F65 %30.04 in10.0 miSW (230°)15.0 mphScattered Clouds
9:54 PM84.0 °F73.0 °F69 %30.06 in10.0 miWSW (240°)13.8 mphScattered Clouds
10:54 PM82.9 °F73.0 °F72 %30.05 in10.0 miWSW (240°)15.0 mphScattered Clouds
11:54 PM82.0 °F72.0 °F71 %30.06 in10.0 miWSW (250°)12.7 mphScattered Clouds
Hourly data recorded from KBOS, located miles away from Boston, Massachusetts







STORIES FROM OUR PARTNERS